TimeEST,TemperatureF,Dew PointF,Humidity,Sea Level PressureIn,VisibilityMPH,Wind Direction,Wind SpeedMPH,Gust SpeedMPH,PrecipitationIn,Events,Conditions,WindDirDegrees,DateUTC
12:54 AM,16.0,-0.0,49,30.24,10.0,NW,10.4,19.6,N/A,,Clear,310,2013-01-27 05:54:00
1:54 AM,15.1,-0.0,51,30.27,10.0,NW,5.8,-,N/A,,Clear,310,2013-01-27 06:54:00
2:54 AM,15.1,1.0,54,30.28,10.0,WNW,8.1,-,N/A,,Clear,290,2013-01-27 07:54:00
3:54 AM,14.0,1.0,56,30.29,10.0,West,9.2,-,N/A,,Clear,280,2013-01-27 08:54:00
4:54 AM,15.1,1.0,54,30.30,10.0,WNW,9.2,-,N/A,,Clear,300,2013-01-27 09:54:00
5:54 AM,15.1,-0.0,51,30.32,10.0,WNW,9.2,-,N/A,,Clear,290,2013-01-27 10:54:00
6:54 AM,15.1,-0.9,49,30.34,10.0,NW,8.1,19.6,N/A,,Clear,310,2013-01-27 11:54:00
7:54 AM,15.1,-0.0,51,30.37,10.0,WNW,6.9,-,N/A,,Clear,300,2013-01-27 12:54:00
8:54 AM,18.0,-2.9,40,30.39,10.0,NW,13.8,32.2,N/A,,Clear,310,2013-01-27 13:54:00
9:54 AM,21.0,-4.0,33,30.40,10.0,WNW,16.1,24.2,N/A,,Clear,300,2013-01-27 14:54:00
10:54 AM,23.0,-4.0,31,30.40,10.0,NW,13.8,26.5,N/A,,Clear,310,2013-01-27 15:54:00
11:54 AM,26.1,-4.0,27,30.40,10.0,WNW,12.7,24.2,N/A,,Clear,300,2013-01-27 16:54:00
12:54 PM,28.0,-2.9,26,30.39,10.0,NW,12.7,25.3,N/A,,Clear,320,2013-01-27 17:54:00
1:54 PM,28.9,-5.1,23,30.39,10.0,NW,12.7,23.0,N/A,,Clear,310,2013-01-27 18:54:00
2:54 PM,30.0,-6.0,21,30.38,10.0,NW,16.1,23.0,N/A,,Clear,310,2013-01-27 19:54:00
3:54 PM,30.0,-7.1,20,30.39,10.0,WNW,12.7,-,N/A,,Clear,300,2013-01-27 20:54:00
4:54 PM,28.0,-4.0,25,30.41,10.0,WNW,11.5,18.4,N/A,,Clear,300,2013-01-27 21:54:00
5:54 PM,27.0,-4.0,26,30.43,10.0,WNW,10.4,-,N/A,,Clear,290,2013-01-27 22:54:00
6:54 PM,26.1,-5.1,26,30.45,10.0,WNW,11.5,-,N/A,,Clear,290,2013-01-27 23:54:00
7:54 PM,24.1,-5.1,28,30.46,10.0,WNW,5.8,-,N/A,,Clear,300,2013-01-28 00:54:00
8:54 PM,21.9,-5.1,30,30.46,10.0,NW,5.8,-,N/A,,Clear,310,2013-01-28 01:54:00
9:54 PM,19.9,-4.0,35,30.46,10.0,WNW,5.8,-,N/A,,Clear,290,2013-01-28 02:54:00
10:54 PM,19.9,-6.0,32,30.47,10.0,West,8.1,-,N/A,,Clear,280,2013-01-28 03:54:00
11:54 PM,19.9,-6.0,32,30.46,10.0,WNW,4.6,-,N/A,,Mostly Cloudy,300,2013-01-28 04:54:00